Location: *
(53.9002°N, 27.5624°E)
Time: 13:19:10
(UTC+00:00)

Cosmos 773 Rocket - Pass Details

Date: 12 November 2019
Orbit: 745 x 778 km, 74.1° (Epoch: 12 December)

Event Time Altitude Azimuth Distance (km) Brightness Sun altitude
Rises 15:53:57 0° 185° (S) 3,185 7.4 -14.3°
Reaches altitude 10° 15:56:21 10° 179° (S) 2,269 6.6 -14.6°
Maximum altitude 16:01:15 46° 107° (ESE) 1,008 4.2 -15.3°
Enters shadow 16:05:05 16° 40° (NE) 1,890 5.6 -15.9°
